{"data":{"norad_id":59725,"epoch":"2026-09-21T13:58:06.463200Z","epoch_age_seconds":77875,"freshness":"FRESH","line1":"1 59725U 24088T   26264.58201925 -.00000721  00000+0 -11466-4 0  9995","line2":"2 59725  53.1598 308.6262 0001159  80.7460 279.3673 15.31705436133693","mean_motion":15.31705436,"eccentricity":0.0001159,"inclination_deg":53.1598,"raan_deg":308.6262,"arg_perigee_deg":80.746,"mean_anomaly_deg":279.3673,"bstar":-1.1466e-5,"rev_number":13369,"period_min":94.012854309672,"perigee_km":469.93000787478,"apogee_km":471.5175738061,"semimajor_km":6848.8607908404,"source":"CELESTRAK","updated_at":"2026-09-22T09:00:49.060980Z"}}